This is the latest recevied weather packets stored in our database for station/object W4OTS. If no packets are shown the sender has not sent any weather packets the latest 1 day(s).
| Time | Temp. | Humidity | Pressure | Rain* | Wind** | Luminosity | Snow |
|---|---|---|---|---|---|---|---|
| 1778068509 | 15.56° C | 91% | 1016.1 hPa | 0 mm | - | 25 W/m² | - |
| 1778067603 | 15.56° C | 90% | 1016.4 hPa | 0 mm | - | 19 W/m² | - |
| 1778066694 | 15° C | 90% | 1015.8 hPa | 0 mm | - | 31 W/m² | - |
| 1778066089 | 15° C | 90% | 1015.9 hPa | 0 mm | - | 25 W/m² | - |
| 1778065484 | 15° C | 90% | 1015.6 hPa | 0 mm | - | 17 W/m² | - |
| 1778064876 | 15° C | 90% | 1015.3 hPa | 0 mm | - | 9 W/m² | - |
| 1778063970 | 15° C | 89% | 1015.3 hPa | 0 mm | - | 3 W/m² | - |
| 1778063667 | 15° C | 89% | 1015.4 hPa | 0 mm | - | 1 W/m² | - |
| 1778063062 | 15° C | 89% | 1015.3 hPa | 0 mm | - | 0 W/m² | - |
| 1778061548 | 15.56° C | 88% | 1014.9 hPa | 0 mm | - | 0 W/m² | - |
| 1778060641 | 15.56° C | 87% | 1015.2 hPa | 0 mm | - | 0 W/m² | - |
| 1778060036 | 15.56° C | 88% | 1015 hPa | 0 mm | - | 0 W/m² | - |
| 1778058826 | 15.56° C | 87% | 1015.3 hPa | 0 mm | - | 0 W/m² | - |
| 1778058523 | 15.56° C | 87% | 1015.2 hPa | 0 mm | - | 0 W/m² | - |
| 1778057613 | 15.56° C | 87% | 1015.5 hPa | 0 mm | - | 0 W/m² | - |
| 1778056703 | 15.56° C | 87% | 1015.5 hPa | 0 mm | - | 0 W/m² | - |
| 1778056401 | 15.56° C | 87% | 1015.4 hPa | 0 mm | - | 0 W/m² | - |
| 1778053674 | 16.11° C | 84% | 1015.5 hPa | 0 mm | - | 0 W/m² | - |
| 1778053070 | 16.67° C | 84% | 1015.7 hPa | 0 mm | - | 0 W/m² | - |
| 1778052766 | 16.67° C | 83% | 1015.7 hPa | 0 mm | - | 0 W/m² | - |
| 1778052161 | 16.67° C | 82% | 1015.6 hPa | 0 mm | - | 0 W/m² | - |
| 1778051556 | 16.67° C | 81% | 1015.7 hPa | 0 mm | - | 0 W/m² | - |
| 1778051253 | 17.22° C | 81% | 1015.5 hPa | 0 mm | - | 0 W/m² | - |
| 1778050950 | 17.22° C | 80% | 1016.1 hPa | 0 mm | - | 0 W/m² | - |
| 1778050344 | 17.22° C | 80% | 1015.8 hPa | 0 mm | - | 0 W/m² | - |
* Rain latest hour (hover to see other rain measurements)
** Current wind speed in m/s (hover to see current wind gust speed)